| time (UTC) | temp C | wind direction | speed KPH | gust KPH | rain 1hr cm | rain 24hr cm | rain mn cm | humidity % | barometer mb |
| 20260503184531 | 15 | 238 | 32.2 | 0.0 | 0.00 | 0.00 | 0.00 | 45 | 982.8 |
| 20260503183538 | 15 | 236 | 33.8 | 0.0 | 0.00 | 0.00 | 0.00 | 45 | 982.8 |
| 20260503181530 | 15 | 235 | 32.2 | 0.0 | 0.00 | 0.00 | 0.00 | 43 | 983.1 |
| 20260503180059 | 15 | 240 | 33.8 | 0.0 | 0.00 | 0.00 | 0.00 | 43 | 983.1 |
| 20260503174528 | 15 | 239 | 33.8 | 0.0 | 0.00 | 0.00 | 0.00 | 45 | 983.5 |
| 20260503173049 | 15 | 238 | 33.8 | 0.0 | 0.00 | 0.00 | 0.00 | 43 | 982.8 |
| 20260503160104 | 13 | 238 | 29.0 | 0.0 | 0.00 | 0.00 | 0.00 | 47 | 982.5 |
| 20260503120104 | 5 | 223 | 14.5 | 0.0 | 0.00 | 0.00 | 0.00 | 62 | 983.9 |
| 20260503081529 | 1 | 187 | 11.3 | 0.0 | 0.00 | 0.00 | 0.00 | 68 | 983.6 |
| 20260503071529 | 1 | 174 | 9.7 | 0.0 | 0.00 | 0.00 | 0.00 | 68 | 983.8 |
| 20260503060105 | 2 | 194 | 9.7 | 0.0 | 0.00 | 0.00 | 0.00 | 65 | 984.7 |
| 20260503054530 | 1 | 189 | 8.0 | 0.0 | 0.00 | 0.00 | 0.00 | 67 | 985.2 |
| 20260503051529 | 1 | 185 | 8.0 | 0.0 | 0.00 | 0.00 | 0.00 | 66 | 985.5 |
| 20260503050056 | 1 | 193 | 8.0 | 0.0 | 0.00 | 0.00 | 0.00 | 66 | 985.5 |
| 20260503044529 | 1 | 191 | 6.4 | 0.0 | 0.00 | 0.00 | 0.00 | 65 | 985.7 |
| 20260503043049 | 2 | 192 | 6.4 | 0.0 | 0.00 | 0.00 | 0.00 | 66 | 985.2 |
| 20260503041529 | 2 | 195 | 6.4 | 0.0 | 0.00 | 0.00 | 0.00 | 66 | 985.2 |
| 20260503040059 | 2 | 203 | 6.4 | 0.0 | 0.00 | 0.00 | 0.00 | 66 | 985.2 |
| 20260503034529 | 2 | 212 | 6.4 | 0.0 | 0.00 | 0.00 | 0.00 | 63 | 986.1 |
| 20260503033050 | 2 | 210 | 6.4 | 0.0 | 0.00 | 0.00 | 0.00 | 65 | 986.4 |
| 20260503031529 | 2 | 205 | 6.4 | 0.0 | 0.00 | 0.00 | 0.00 | 65 | 986.4 |
| 20260503030057 | 3 | 217 | 6.4 | 0.0 | 0.00 | 0.00 | 0.00 | 65 | 986.4 |
| 20260503024529 | 3 | 223 | 6.4 | 0.0 | 0.00 | 0.00 | 0.00 | 60 | 986.9 |
| 20260503023049 | 3 | 225 | 6.4 | 0.0 | 0.00 | 0.00 | 0.00 | 64 | 986.9 |
| 20260503021529 | 3 | 228 | 8.0 | 0.0 | 0.00 | 0.00 | 0.00 | 64 | 986.9 |
| 20260503020056 | 3 | 230 | 8.0 | 0.0 | 0.00 | 0.00 | 0.00 | 64 | 986.9 |
| 20260503014529 | 3 | 237 | 8.0 | 0.0 | 0.00 | 0.00 | 0.00 | 61 | 986.3 |
| 20260503013047 | 4 | 238 | 8.0 | 0.0 | 0.00 | 0.00 | 0.00 | 61 | 986.3 |
| 20260503011529 | 4 | 232 | 8.0 | 0.0 | 0.00 | 0.00 | 0.00 | 61 | 986.3 |
| 20260503010055 | 5 | 236 | 8.0 | 0.0 | 0.00 | 0.00 | 0.00 | 61 | 986.3 |
| 20260503004529 | 5 | 237 | 8.0 | 0.0 | 0.00 | 0.00 | 0.00 | 48 | 987.0 |
| 20260503003043 | 6 | 231 | 6.4 | 0.0 | 0.00 | 0.00 | 0.00 | 48 | 987.3 |
| 20260503001529 | 6 | 245 | 6.4 | 0.0 | 0.00 | 0.00 | 0.00 | 48 | 987.3 |
| 20260503000055 | 7 | 262 | 6.4 | 0.0 | 0.00 | 0.00 | 0.00 | 48 | 987.3 |
| 20260502234530 | 7 | 278 | 9.7 | 0.0 | 0.00 | 0.00 | 0.00 | 41 | 987.0 |
| 20260502233042 | 7 | 266 | 12.9 | 0.0 | 0.00 | 0.00 | 0.00 | 43 | 987.1 |
| 20260502231530 | 7 | 267 | 14.5 | 0.0 | 0.00 | 0.00 | 0.00 | 43 | 987.1 |
| 20260502230056 | 7 | 271 | 16.1 | 0.0 | 0.00 | 0.00 | 0.00 | 43 | 987.1 |
| 20260502224530 | 8 | 273 | 17.7 | 0.0 | 0.00 | 0.00 | 0.00 | 40 | 987.5 |
| 20260502223048 | 8 | 270 | 17.7 | 0.0 | 0.00 | 0.00 | 0.00 | 42 | 988.1 |
| 20260502221530 | 8 | 270 | 17.7 | 0.0 | 0.00 | 0.00 | 0.00 | 42 | 988.1 |
| 20260502220055 | 8 | 270 | 17.7 | 0.0 | 0.00 | 0.00 | 0.00 | 42 | 988.1 |
| 20260502214530 | 8 | 271 | 17.7 | 0.0 | 0.00 | 0.00 | 0.00 | 44 | 988.3 |
| 20260502213048 | 8 | 271 | 16.1 | 0.0 | 0.00 | 0.00 | 0.00 | 39 | 987.9 |
| 20260502211530 | 8 | 266 | 16.1 | 0.0 | 0.00 | 0.00 | 0.00 | 39 | 987.8 |
| 20260502210058 | 8 | 264 | 16.1 | 0.0 | 0.00 | 0.00 | 0.00 | 39 | 987.8 |
| 20260502204530 | 8 | 265 | 16.1 | 0.0 | 0.00 | 0.00 | 0.00 | 42 | 988.2 |
| 20260502203048 | 8 | 267 | 17.7 | 0.0 | 0.00 | 0.00 | 0.00 | 39 | 988.8 |
| 20260502201530 | 8 | 269 | 17.7 | 0.0 | 0.00 | 0.00 | 0.00 | 39 | 988.8 |
| 20260502200055 | 8 | 270 | 17.7 | 0.0 | 0.00 | 0.00 | 0.00 | 39 | 988.8 |
| 20260502194530 | 8 | 271 | 17.7 | 0.0 | 0.00 | 0.00 | 0.00 | 43 | 988.9 |
| 20260502193043 | 8 | 274 | 17.7 | 0.0 | 0.00 | 0.00 | 0.00 | 43 | 988.9 |
| 20260502191530 | 8 | 276 | 17.7 | 0.0 | 0.00 | 0.00 | 0.00 | 43 | 989.0 |
| 20260502190055 | 8 | 276 | 19.3 | 0.0 | 0.00 | 0.00 | 0.00 | 43 | 989.0 |